星链-3120 (STARLINK-3120 )

导读

STARLINK-3120是美国SpaceX公司星链(Starlink)项目的V1.5低轨通信卫星,于2021年11月13日发射入轨,属于星链第二代星座的组成部分。它运行在约550公里近地轨道,配备激光星间链路与相控阵天线,依托低轨优势,可提供低时延高速宽带服务,是全球星链巨型卫星星座的一员,支撑星链实现全球互联网覆盖。

Basic Information
目录编号:
49419
目录名称:
STARLINK-3120
国际标识:
2021-104M
轨道中心:
EARTH
卫星名称:
星链-3120
卫星全名:
星链-3120 (STARLINK-3120 )
卫星状态:
在轨 (已飞行1756 天)
发射日期:
2021-11-13 UTC
国别 :
美国 (US)
星等 :
--
Orbit Information
数据来源 国际轨道数据 AOE轨道数据
星历时间 2026-09-04T01:09:33+0800
14小时前
查看轨道信息
2026-09-03T23:00:00+0800
16小时前
查看轨道信息
半长轴 6837.873km 6837.884km
偏心率 0.000115 0.0001135
轨道倾角 53.161° 53.160°
近地点辐角 86.677° 78.640°
升交点赤经 140.625° 141.046°
平近点角 273.437° 143.892°
近地点 458.949km 458.97km
远地点 460.523km 460.524km
周期 93.787分钟 93.787分钟
每日圈数 15.353992 15.353955
Detailed Information
固有亮度:
5
最大亮度:
2.5
卫星平台:
Starlink v1.5
覆盖范围:
全球
运营商:
太空探索技术公司
运营商所在国:
美国
制造商(研发单位):
太空探索技术公司
制造商所在国:
美国
使用方式:
暂无
Satellite Introduction
星链(Starlink)计划是由太空探索技术公司(SpaceX)提出的一个巨型低轨卫星互联网星座项目,计划在2019年至2024年间在太空搭建由约1.2万颗卫星组成的“星链”网络,其中1584颗将部署在地球上空550千米处的近地轨道,并从2020年开始工作。该卫星仍在工作。
2D Orbit Map
3D Orbit Map
Orbit Altitude Analysis Chart
Orbit Inclination Analysis Chart
Orbit Comprehensive Analysis Chart
View Comprehensive Chart
Conjunction Data List
Event ID Objects TCA Miss Dist (km) Collision Risk Probability Collision Risk Index (CRI) Action
CDM_260905-095004-941906-444121
2026-09-05T
09:50:22+0000
2.212 km
极远距离
1.984011E-6 低风险 0.41
CDM_260828-000104-941905-917523
EXO-0 (59175)
2026-08-28T
00:01:16+0000
2.426 km
极远距离
1.816826E-6 低风险 0.4
CDM_260903-165504-941906-946022
2026-09-03T
16:55:50+0000
2.505 km
极远距离
1.355736E-6 低风险 0.38
CDM_260904-023304-941906-034022
2026-09-04T
02:33:35+0000
2.912 km
极远距离
1.244207E-6 低风险 0.37